Regional Weather Roundup
Issued by NWS

Current Version | Previous Version | Text Only | Print | Product List | Glossary On
Versions: 1 2 3 4 5 6 7 8 9 10 11 12 13 14 15 16 17 18 19 20 21 22 23 24 25 26 27 28 29 30 31 32 33 34 35 36 37 38 39 40 41 42 43 44 45 46 47 48 49 50
000
ASUS42 KKEY 260010
RWRKEY

FLORIDA REGIONAL WEATHER ROUNDUP FOR THE FLORIDA KEYS
NATIONAL WEATHER SERVICE KEY WEST FLORIDA
800 PM EDT MON SEP 25 2017

...SOUTH FLORIDA AND THE KEYS...

CITY           SKY/WX    TMP DP  RH WIND       PRES   REMARKS
FORT MYERS     PTCLDY    83  77  82 W6        29.84R HX  92
SW REGIONAL AP PTCLDY    83  75  77 W3        29.85R HX  90
NAPLES         CLOUDY    84  75  74 SW6       29.84S HX  92
MIAMI          MOCLDY    85  75  72 SW9       29.85S HX  93
WEST KENDALL   PTCLDY    79  73  82 W5        29.85R
HOMESTEAD      CLOUDY    79  79 100 W7        29.85R
MARATHON       MOCLDY    85  74  69 S3        29.86R HX  92
KEY WEST INTL  CLOUDY    84  75  74 CALM      29.86S HX  92

...INTERNATIONAL WEATHER...

CITY           SKY/WX    TMP DP  RH WIND       PRES   REMARKS
NASSAU BAHAMAS PTCLDY    86  77  74 CALM      29.88R HX  97
CANCUN MEXICO  MOCLDY    79  75  89 SE8       29.80F
COZUMEL MEXICO MOCLDY    79  75  89 E5        29.79R

ADJACENT COASTAL WATERS...

STATION/POSITION TIME  SKY/WX   TEMP    WIND        PRES    WAVE
                                AIR SEA DIR/SP/G            HT/PER
                 (UTC)          (F)     (DEG/KT/KT) (MB)    (FT/S)
PULASKI SHOAL LI 0000            82     180/ 11/ 13 1011.7R
SAND KEY         2350            83                 1011.8R
LONG KEY         NOT AVBL
MOLASSES REEF    2300            84 85  250/  5/  8 1011.2F
FOWEY ROCKS      2300            84 85  200/ 16/ 17 1011.2R
Buoy 42097       2330               86                N/A     1

$$



USA.gov is the U.S. government's official web portal to all federal, state and local government web resources and services.